Home > Time Zones > World Clock > Weather > Japan > Naha > Past weeks

Flag for Japan Weather past 2 weeks in Naha, Okinawa, Japan

Now
84 °F

Passing clouds.


Feels Like: 96 °F
Forecast: 83 / 90 °F
Wind: 7 mph from Southeast

Location: Naha Airport

Current Time: Jul 8, 2015 at 1:04:20 AM

Latest Report: Jul 8, 2015 at 12:30 AM


Visibility: N/A

Pressure: 29.68 "Hg

Humidity: 84%

Dew point: 79 °F

Location of NahaLocation

Historic Weather in Naha — Graph

°F

Naha temperature yesterday

Maximum temperature yesterday: 91 °F (at 2:00 PM)
Minimum temperature yesterday: 84 °F (at 2:30 AM)
Average temperature yesterday: 87 °F

Past Weeks' High & Low Weather Summary

 TemperatureHumidityPressure
High91 °F (Jul 5, 12:00 PM)89% (Jun 23, 2:00 AM)29.89 "Hg (Jun 23, 2:00 AM)
Low81 °F (Jul 6, 1:30 AM)59% (Jul 5, 1:30 PM)29.62 "Hg (Jun 30, 4:00 PM)
Average86 °F80%29.72 "Hg
* Reported Midnight between Jun 22 and Jun 23 — Midnight between Jul 7 and Jul 8, Naha, Weather by CustomWeather, © 2015

Note: Actual official high and low records may vary slightly from our data, if they occured in-between our weather recording intervals... More about our weather records

Advertising

Naha weather history for previous 24 hours

 ConditionsComfort  
Time TempWeatherWind HumidityBarometerVisibility
12:00 AM
Wed, Jul 8
84 °FPassing clouds.7 mph84%29.68 "HgN/A
11:30 PM
Tue, Jul 7
84 °FPassing clouds.7 mph84%29.71 "HgN/A
11:00 PM84 °FPassing clouds.6 mph84%29.71 "HgN/A
10:30 PM84 °FPassing clouds.6 mph84%29.71 "HgN/A
10:00 PM84 °FPassing clouds.7 mph84%29.68 "HgN/A
9:30 PM84 °FPassing clouds.7 mph79%29.71 "HgN/A
9:00 PM86 °FPassing clouds.8 mph75%29.68 "HgN/A
8:30 PM86 °FPassing clouds.9 mph75%29.68 "HgN/A
8:00 PM86 °FPassing clouds.8 mph75%29.68 "HgN/A
7:30 PM86 °FPartly cloudy.12 mph75%29.65 "HgN/A
7:00 PM88 °FBroken clouds.12 mph70%29.65 "HgN/A
6:30 PM88 °FScattered clouds.10 mph70%29.65 "HgN/A
6:00 PM88 °FScattered clouds.14 mph70%29.62 "HgN/A
5:30 PM90 °FScattered clouds.13 mph67%29.62 "HgN/A
5:00 PM90 °FScattered clouds.15 mph67%29.62 "HgN/A
4:30 PM90 °FScattered clouds.15 mph67%29.62 "HgN/A
4:00 PM88 °FScattered clouds.15 mph70%29.62 "HgN/A
3:30 PM90 °FScattered clouds.14 mph67%29.62 "HgN/A
3:00 PM90 °FScattered clouds.13 mph63%29.62 "HgN/A
2:30 PM90 °FScattered clouds.14 mph63%29.65 "HgN/A
2:00 PM91 °FScattered clouds.15 mph63%29.65 "HgN/A
1:30 PM90 °FScattered clouds.15 mph63%29.65 "HgN/A
1:00 PM90 °FScattered clouds.15 mph67%29.65 "HgN/A
12:30 PM90 °FScattered clouds.15 mph63%29.65 "HgN/A
12:00 PM90 °FScattered clouds.17 mph63%29.65 "HgN/A
11:30 AM90 °FScattered clouds.16 mph67%29.65 "HgN/A
11:00 AM90 °FScattered clouds.17 mph67%29.65 "HgN/A
10:30 AM90 °FScattered clouds.17 mph67%29.65 "HgN/A
10:00 AM88 °FScattered clouds.17 mph70%29.65 "HgN/A
9:30 AM88 °FScattered clouds.18 mph70%29.65 "HgN/A
9:00 AM88 °FScattered clouds.16 mph70%29.65 "HgN/A
8:30 AM88 °FScattered clouds.16 mph70%29.65 "HgN/A
8:00 AM86 °FScattered clouds.15 mph75%29.65 "HgN/A
7:30 AM86 °FScattered clouds.15 mph75%29.65 "HgN/A
7:00 AM86 °FPassing clouds.16 mph75%29.62 "HgN/A
6:30 AM84 °FScattered clouds.12 mph79%29.62 "HgN/A
6:00 AM84 °FScattered clouds.13 mph79%29.62 "HgN/A
5:30 AM84 °FPassing clouds.13 mph79%29.62 "HgN/A
5:00 AM84 °FPassing clouds.13 mph79%29.62 "HgN/A
4:30 AM84 °FPassing clouds.15 mph79%29.62 "HgN/A
4:00 AM84 °FPassing clouds.15 mph79%29.62 "HgN/A
3:30 AM84 °FPassing clouds.13 mph79%29.62 "HgN/A
3:00 AM84 °FPassing clouds.15 mph79%29.62 "HgN/A
2:30 AM84 °FPassing clouds.15 mph79%29.65 "HgN/A
2:00 AM86 °FPassing clouds.15 mph79%29.65 "HgN/A
1:30 AM86 °FPassing clouds.16 mph79%29.62 "HgN/A
1:00 AM86 °FPassing clouds.15 mph79%29.65 "HgN/A
Weather by CustomWeather, © 2015

See weather overviewHow to use our weather pages